Alexandria, MN

8:34 PM CDT on July 25, 2017 (GMT -0500)
Chandler

Weather History for KAXN - March, 2013

Change the Weather History Date:

Friday, March 1, 2013

  Actual Average Record
Temperature  
Mean Temperature 18 °F -  
Max Temperature 27 °F 31 °F 59 °F (1992)
Min Temperature 9 °F 11 °F -34 °F (1962)
Degree Days  
Heating Degree Days 47    
Moisture  
Dew Point 11 °F    
Average Humidity 74    
Maximum Humidity 92    
Minimum Humidity 53    
Precipitation  
Precipitation 0.00 in - - ()
Sea Level Pressure  
Sea Level Pressure 30.40 in    
Wind  
Wind Speed 6 mph (NNE)    
Max Wind Speed 9 mph    
Max Gust Speed -    
Visibility 10 miles    
Events      
Averages and records for this station are not official NWS values.
T = Trace of Precipitation, MM = Missing Value Source: NWS Daily Summary

Daily Weather History Graph

Daily Weather History Graph

Search for Another Location

Airport or City:

Trip Planner

Search our weather history database for the weather conditions in past years. The results will help you decide how hot, cold, wet, or windy it might be!

Date:

Astronomy

Mar. 01, 2013 Rise Set
Actual Time 6:59 AM CST 6:08 PM CST
Civil Twilight 6:29 AM CST 6:38 PM CST
Nautical Twilight 5:55 AM CST 7:13 PM CST
Astronomical Twilight 5:20 AM CST 7:47 PM CST
Moon 11:00 PM CST (3/1) 8:31 AM CST (3/1)
Length of Visible Light 12h 08m
Length of Day
11h 08m
Waning Gibbous, 83% of the Moon is Illuminated
Mar 1
Waning Gibbous
Mar 4
Last Quarter
Mar 11
New
Mar 19
First Quarter
Mar 27
Full

Hourly Weather History & Observations

Time (CST) Temp. Windchill Dew Point Humidity Pressure Visibility Wind Dir Wind Speed Gust Speed Precip Events Conditions
12:53 AM 16.0 °F 6.3 °F 10.9 °F 81% 30.33 in 10.0 mi NE 6.9 mph - N/A   Mostly Cloudy
2:53 AM 16.0 °F 8.8 °F 10.9 °F 81% 30.35 in 10.0 mi North 4.6 mph - N/A   Clear
4:53 AM 12.0 °F 1.5 °F 9.0 °F 88% 30.37 in 10.0 mi North 6.9 mph - N/A   Clear
6:53 AM 9.0 °F 0.6 °F 7.0 °F 92% 30.40 in 10.0 mi NNE 4.6 mph - N/A   Clear
7:11 AM 12.2 °F 2.9 °F 8.6 °F 85% 30.31 in 10.0 mi NNE 5.8 mph - N/A   Mostly Cloudy
7:53 AM 12.9 °F 6.9 °F 10.0 °F 88% 30.41 in 10.0 mi NE 3.5 mph - N/A   Overcast
8:53 AM 18.0 °F 8.7 °F 12.0 °F 78% 30.43 in 10.0 mi NE 6.9 mph - N/A   Mostly Cloudy
9:06 AM 17.6 °F 6.4 °F 12.2 °F 79% 30.34 in 10.0 mi ENE 9.2 mph - N/A   Scattered Clouds
9:53 AM 19.9 °F 9.3 °F 12.0 °F 71% 30.43 in 10.0 mi ENE 9.2 mph - N/A   Clear
10:53 AM 21.0 °F 12.4 °F 12.9 °F 71% 30.44 in 10.0 mi East 6.9 mph - N/A   Scattered Clouds
11:53 AM 24.1 °F 14.4 °F 14.0 °F 65% 30.43 in 10.0 mi North 9.2 mph - N/A   Clear
12:53 PM 26.1 °F 17.6 °F 14.0 °F 60% 30.42 in 10.0 mi NNE 8.1 mph - N/A   Clear
1:53 PM 27.0 °F 18.7 °F 14.0 °F 58% 30.40 in 10.0 mi North 8.1 mph - N/A   Clear
2:53 PM 27.0 °F 18.7 °F 12.0 °F 53% 30.40 in 10.0 mi NE 8.1 mph - N/A   Clear
3:53 PM 27.0 °F 20.5 °F 12.0 °F 53% 30.40 in 10.0 mi North 5.8 mph - N/A   Clear
4:53 PM 26.1 °F 19.4 °F 10.9 °F 53% 30.41 in 10.0 mi North 5.8 mph - N/A   Clear
5:53 PM 24.1 °F 18.2 °F 10.0 °F 55% 30.42 in 10.0 mi North 4.6 mph - N/A   Clear
6:53 PM 19.0 °F 10.0 °F 9.0 °F 65% 30.44 in 10.0 mi West 6.9 mph - N/A   Clear
8:53 PM 16.0 °F 8.8 °F 12.0 °F 84% 30.43 in 10.0 mi NNW 4.6 mph - N/A   Clear
9:53 PM 12.0 °F 4.1 °F 9.0 °F 88% 30.43 in 9.0 mi NW 4.6 mph - N/A   Clear
10:53 PM 12.9 °F - 9.0 °F 84% 30.43 in 9.0 mi Calm Calm - N/A   Clear
11:53 PM 10.0 °F - 8.1 °F 92% 30.41 in 1.2 mi Calm Calm - N/A   Clear